Location: Muenchen
(48.1800°N, 11.5800°E)
Time: 02:04:51
(UTC+02:00)

Sich 1 Rocket - Visible Passes

Search period start: 27 June 2017 00:00
Search period end: 07 July 2017 00:00
Orbit: 617 x 652 km, 82.5° (Epoch: 26 June)

Date Brightness Start Highest point End Pass type
(mag) Time Alt. Az. Time Alt. Az. Time Alt. Az.
27 Jun 4.4 02:38:16 20° SSE 02:41:08 46° E 02:45:32 10° NNE visible
27 Jun 5.3 04:16:02 10° WSW 04:19:35 22° WNW 04:23:08 10° NNW visible
28 Jun 6.2 01:24:51 10° E 01:25:57 11° E 01:27:03 10° ENE visible
28 Jun 3.6 03:00:34 24° S 03:03:22 90° SW 03:07:59 10° N visible
29 Jun 5.6 01:45:22 14° SE 01:47:52 21° E 01:51:15 10° NE visible
29 Jun 4.2 03:22:51 20° SW 03:25:44 46° WNW 03:30:10 10° N visible
30 Jun 4.7 02:07:39 23° SE 02:09:56 38° E 02:14:10 10° NNE visible
30 Jun 5.1 03:45:08 13° WSW 03:48:15 25° WNW 03:52:03 10° NNW visible
01 Jul 3.7 02:29:54 30° S 02:32:08 75° E 02:36:42 10° NNE visible
01 Jul 5.8 04:08:26 10° W 04:10:54 14° WNW 04:13:24 10° NNW visible
02 Jul 5.7 01:14:40 13° ESE 01:16:42 17° E 01:19:41 10° NE visible
02 Jul 3.9 02:52:09 27° SW 02:54:27 56° WNW 02:58:57 10° N visible
03 Jul 4.9 01:36:54 23° SE 01:38:44 32° E 01:42:47 10° NNE visible
03 Jul 4.9 03:14:23 18° WSW 03:16:56 30° WNW 03:20:56 10° N visible
04 Jul 3.9 01:59:08 35° SSE 02:00:54 62° E 02:05:23 10° NNE visible
04 Jul 5.7 03:36:36 10° WSW 03:39:33 17° WNW 03:42:29 10° NNW visible
05 Jul 5.8 00:43:51 12° ESE 00:45:34 14° E 00:48:00 10° NE visible
05 Jul 3.7 02:21:20 35° SSW 02:23:11 68° W 02:27:43 10° N visible
06 Jul 5.1 01:06:03 22° ESE 01:07:33 27° E 01:11:21 10° NNE visible
06 Jul 4.7 02:43:32 23° WSW 02:45:37 35° WNW 02:49:48 10° N visible
